Regional Weather Roundup
Issued by NWS

Home | Current Version | Previous Version | Text Only | Print | Product List | Glossary Off
Versions: 1 2 3 4 5 6 7 8 9 10 11 12 13 14 15 16 17 18 19 20 21 22 23 24 25 26 27 28 29 30 31 32 33 34 35 36 37 38 39 40 41 42 43 44 45 46 47 48 49 50

000
ASUS43 KBIS 031802
RWRND

NORTH DAKOTA REGIONAL WEATHER ROUNDUP
NATIONAL WEATHER SERVICE BISMARCK ND
1200 PM CST SAT DEC 03 2016

NOTE: "FAIR" INDICATES FEW OR NO CLOUDS BELOW 12,000 FEET WITH NO
SIGNIFICANT WEATHER AND/OR OBSTRUCTIONS TO VISIBILITY.


NDZ001>003-009>011-017-031900-
NORTHWEST NORTH DAKOTA

CITY           SKY/WX    TMP DP  RH WIND       PRES   REMARKS
WILLISTON      CLOUDY    28  22  78 S6        29.80F
6HR MIN TEMP:  16; 6HR MAX TEMP:  28;

MINOT          MOSUNNY   27  23  85 SE14      29.85F WCI  16
MINOT AFB      SUNNY     26  22  84 S17       29.84F WCI  13
$$

NDZ018>021-031>035-040>046-031900-
SOUTHWEST NORTH DAKOTA

CITY           SKY/WX    TMP DP  RH WIND       PRES   REMARKS
BISMARCK       SUNNY     27  23  85 S12       29.94F WCI  17
6HR MIN TEMP:  22; 6HR MAX TEMP:  27; 6HR PCP: TRACE;

DICKINSON      CLOUDY    22  18  85 S6        29.82F WCI  14
GARRISON         N/A     25  23  92 S17       29.87F WCI  12
6HR MIN TEMP:  23; 6HR MAX TEMP:  25;

HETTINGER ARPT SUNNY     23  19  85 SW5       29.87F WCI  17
$$

NDZ004>008-012>016-024-026-027-054-031900-
NORTHEAST NORTH DAKOTA

CITY           SKY/WX    TMP DP  RH WIND       PRES   REMARKS
GRAND FORKS    CLOUDY    30  23  75 S17       30.11F WCI  18
GRND FRKS AFB  CLOUDY    29  24  80 S15G24    30.09F WCI  18
DEVILS LAKE    CLOUDY    29  27  92 SE18G24   29.98F WCI  16
$$

NDZ022-023-025-028>030-036>039-047>053-031900-
SOUTHEAST NORTH DAKOTA

CITY           SKY/WX    TMP DP  RH WIND       PRES   REMARKS
FARGO          PTSUNNY   30  22  72 S17       30.14F WCI  18
6HR MIN TEMP:  25; 6HR MAX TEMP:  30;

JAMESTOWN      PTSUNNY   30  26  85 S17       30.01F WCI  18
$$





USA.gov is the U.S. government's official web portal to all federal, state and local government web resources and services.